Location: Byhalia Creek
(34.8270°N, 89.8040°W)
Time: 16:56:06
(UTC+00:00)

Meteor 2-16 Rocket - Pass Details

Date: 22 April 2026
Orbit: 941 x 956 km, 82.6° (Epoch: 9 May)

Event Time Altitude Azimuth Distance (km) Brightness Sun altitude
Rises 02:32:32 0° 353° (N) 3,630 8.1 -22.4°
Reaches altitude 10° 02:35:03 10° 354° (N) 2,679 7.3 -22.8°
Maximum altitude 02:41:11 87° 85° (E) 953 4.3 -23.8°
Enters shadow 02:43:19 43° 171° (S) 1,292 4.8 -24.2°
